WO0TEN Weather Reports


Display with metric or nautical units.
time (UTC)temp
F
wind
direction
speed
MPH
gust
MPH
rain 1hr
in
rain 24hr
in
rain mn
in
humidity
%
barometer
mb
20260502180107 71 158 2.0 0.0 0.00 0.00 0.30 5
20260502170107 67 90 2.0 0.0 0.00 0.00 0.30 6
20260502164107 66 180 2.0 0.0 0.00 0.00 0.30 6
20260502163107 65 225 2.0 0.0 0.00 0.00 0.30 6
20260502162107 65 23 1.0 0.0 0.00 0.00 0.30 6
20260502161107 64 158 0.0 0.0 0.00 0.00 0.30 7
20260502160107 63 90 1.0 0.0 0.00 0.00 0.30 7
20260502152107 60 90 1.0 0.0 0.00 0.00 0.30 8
20260502151106 59 113 0.0 0.0 0.00 0.00 0.30 8
20260502150107 58 113 1.0 0.0 0.00 0.00 0.30 8
20260502140106 53 135 2.0 0.0 0.00 0.00 0.30 9
20260502130107 49 158 0.0 0.0 0.00 0.00 0.30 9
20260502123107 47 158 0.0 0.0 0.00 0.00 0.30 9
20260502122107 47 113 0.0 0.0 0.00 0.00 0.30 9
20260502121107 47 113 0.0 0.0 0.00 0.00 0.30 9
20260502120107 47 158 0.0 0.0 0.00 0.00 0.30 9
20260502115106 47 113 0.0 0.0 0.00 0.00 0.30 9
20260502114106 47 158 0.0 0.0 0.00 0.00 0.30 9
20260502113107 47 135 0.0 0.0 0.00 0.00 0.30 9
20260502112106 47 113 0.0 0.0 0.00 0.00 0.30 9
20260502111107 47 113 0.0 0.0 0.00 0.00 0.30 9
20260502110107 47 113 0.0 0.0 0.00 0.00 0.30 9
20260502105107 48 113 0.0 0.0 0.00 0.00 0.30 9
20260502104106 48 113 0.0 0.0 0.00 0.00 0.30 9
20260502103106 48 203 0.0 0.0 0.00 0.00 0.30 9
20260502102106 48 203 0.0 0.0 0.00 0.00 0.30 9
20260502101106 48 180 0.0 0.0 0.00 0.00 0.30 9
20260502100106 48 158 0.0 0.0 0.00 0.00 0.30 9
20260502091106 48 203 0.0 0.0 0.00 0.00 0.30 9
20260502090106 48 180 0.0 0.0 0.00 0.00 0.30 9
20260502080106 49 158 0.0 0.0 0.00 0.00 0.30 9
20260502071108 49 180 0.0 0.0 0.00 0.00 0.30 9
20260502070108 50 180 0.0 0.0 0.00 0.00 0.30 9
20260502065106 50 180 0.0 0.0 0.00 0.00 0.30 9
20260502064108 50 180 0.0 0.0 0.00 0.00 0.30 9
20260502063107 50 135 0.0 0.0 0.00 0.00 0.30 9
20260502062106 50 90 1.0 0.0 0.00 0.00 0.30 9
20260502061107 50 158 0.0 0.0 0.00 0.00 0.30 9
20260502060107 51 180 0.0 0.0 0.00 0.00 0.30 9
20260502055107 51 180 0.0 0.0 0.00 0.00 0.30 9
20260502054107 51 158 0.0 0.0 0.00 0.00 0.30 9
20260502053106 51 180 0.0 0.0 0.00 0.00 0.30 9
20260502052107 51 180 0.0 0.0 0.00 0.00 0.30 9
20260502051106 52 180 0.0 0.0 0.00 0.00 0.30 9
20260502050107 52 180 0.0 0.0 0.00 0.00 0.30 9
20260502045107 52 203 0.0 0.0 0.00 0.00 0.30 9
20260502044107 52 180 0.0 0.0 0.00 0.00 0.30 9
20260502043106 53 180 0.0 0.0 0.00 0.00 0.30 9
20260502042107 53 158 0.0 0.0 0.00 0.00 0.30 9
20260502041107 53 203 0.0 0.0 0.00 0.00 0.30 9
20260502040107 53 158 0.0 0.0 0.00 0.00 0.30 9
20260502035107 53 180 0.0 0.0 0.00 0.00 0.30 9
20260502034107 53 180 0.0 0.0 0.00 0.00 0.30 9
20260502033107 53 135 1.0 0.0 0.00 0.00 0.30 9
20260502032107 53 180 0.0 0.0 0.00 0.00 0.30 9
20260502031106 53 180 0.0 0.0 0.00 0.00 0.30 9
20260502030107 53 203 0.0 0.0 0.00 0.00 0.30 9
20260502025107 53 135 0.0 0.0 0.00 0.00 0.30 9
20260502024107 53 158 0.0 0.0 0.00 0.00 0.30 9
20260502023107 53 203 0.0 0.0 0.00 0.00 0.30 9
20260502022107 53 203 0.0 0.0 0.00 0.00 0.30 9
20260502021106 53 203 0.0 0.0 0.00 0.00 0.30 9
20260502020108 53 203 1.0 0.0 0.00 0.00 0.30 9
20260502015107 53 203 0.0 0.0 0.00 0.00 0.30 9
20260502014107 53 203 0.0 0.0 0.00 0.00 0.30 9
20260502013108 53 158 0.0 0.0 0.00 0.00 0.30 9
20260502012108 53 203 0.0 0.0 0.00 0.00 0.30 9
20260502011107 53 203 0.0 0.0 0.00 0.00 0.30 9
20260502010107 53 203 2.0 0.0 0.00 0.00 0.30 9
20260502005106 53 180 1.0 0.0 0.00 0.00 0.30 9
20260502004108 53 203 0.0 0.0 0.00 0.00 0.30 9
20260502003107 53 203 1.0 0.0 0.00 0.00 0.30 9
20260502002107 53 203 0.0 0.0 0.00 0.00 0.30 9
20260502001108 53 203 0.0 0.0 0.00 0.00 0.30 9
20260502000106 53 158 1.0 0.0 0.00 0.00 0.30 9
20260501235107 53 203 0.0 0.0 0.00 0.00 0.30 9
20260501234107 53 203 0.0 0.0 0.00 0.00 0.30 9
20260501233108 53 180 0.0 0.0 0.00 0.00 0.30 9
20260501232107 53 135 0.0 0.0 0.00 0.00 0.30 9
20260501231107 53 225 2.0 0.0 0.00 0.00 0.30 9
20260501230107 53 180 1.0 0.0 0.00 0.00 0.30 9
20260501225107 53 113 0.0 0.0 0.00 0.00 0.30 9
20260501224106 54 113 1.0 0.0 0.00 0.00 0.30 9
20260501223107 54 203 0.0 0.0 0.00 0.00 0.30 9
20260501222107 54 158 0.0 0.0 0.00 0.00 0.30 9
20260501221107 54 158 0.0 0.0 0.00 0.00 0.30 9
20260501220108 54 90 1.0 0.0 0.00 0.00 0.30 9
20260501215107 55 158 3.0 0.0 0.00 0.00 0.30 9
20260501214107 55 113 5.0 0.0 0.00 0.00 0.30 9
20260501213108 55 180 3.0 0.0 0.00 0.00 0.30 9
20260501212108 55 113 3.0 0.0 0.00 0.00 0.30 9
20260501211107 55 113 1.0 0.0 0.00 0.00 0.29 9
20260501210108 55 203 2.0 0.0 0.00 0.00 0.29 9
20260501205108 55 90 2.0 0.0 0.00 0.00 0.29 9
20260501204107 56 113 1.0 0.0 0.00 0.00 0.29 9
20260501203106 56 180 0.0 0.0 0.00 0.00 0.29 9
20260501202105 56 135 0.0 0.0 0.00 0.00 0.29 9
20260501201107 56 135 2.0 0.0 0.00 0.00 0.29 9
20260501200107 56 203 0.0 0.0 0.00 0.00 0.29 9
20260501195107 56 248 1.0 0.0 0.00 0.00 0.29 9
20260501194107 56 225 0.0 0.0 0.00 0.00 0.29 9
20260501193107 56 180 0.0 0.0 0.00 0.00 0.29 9
20260501192108 57 135 2.0 0.0 0.00 0.00 0.30 9
20260501191107 57 113 0.0 0.0 0.00 0.00 0.29 9
20260501190107 58 158 0.0 0.0 0.00 0.00 0.29 9
20260501185108 57 180 0.0 0.0 0.00 0.00 0.29 9
20260501184108 57 203 0.0 0.0 0.00 0.00 0.29 9
20260501183107 56 180 0.0 0.0 0.00 0.00 0.30 9
20260501182108 56 113 0.0 0.0 0.00 0.00 0.30 9
20260501181107 56 135 0.0 0.0 0.00 0.00 0.30 9